Wind_Speed
32 33 34 35 36 36 37 38 38 39 39 40 41 41 42 43 43 44 44 44 45 45 46 47 47 48 48 49 49 49 50 50 49 49 50 50 50 50 50 50 50 51 51
32 33 34 35 36 37 38 38 39 39 40 41 42 42 43 43 44 44 45 45 45 46 47 48 48 49 49 49 49 50 50 50 50 49 49 50 50 50 50 50 50 51 52
34 35 35 35 36 37 38 39 40 40 41 42 43 43 44 44 45 45 45 46 46 47 47 48 49 49 49 49 49 49 50 50 50 50 50 51 51 50 51 51 52 53 53
35 36 36 37 37 38 39 39 40 41 42 43 44 44 45 45 45 47 47 46 46 47 48 48 49 49 49 49 49 49 49 50 51 51 51 51 51 52 53 53 53 53 53
36 36 37 38 38 39 39 40 41 42 43 44 44 45 45 45 46 47 47 47 47 47 48 48 49 49 49 49 49 50 50 51 51 51 51 51 52 53 54 54 53 53 53
36 37 38 39 39 39 39 40 41 42 43 43 44 45 45 46 46 47 47 47 47 47 48 49 49 49 49 49 50 50 51 51 51 51 51 52 52 53 53 53 53 53 52
37 38 39 39 40 40 40 40 41 42 43 43 44 45 45 46 46 46 47 47 47 47 48 49 49 49 49 50 50 51 52 52 52 52 52 52 52 53 53 52 52 53 52
37 38 39 39 39 40 40 41 41 42 42 43 44 44 45 45 45 45 46 46 47 47 48 48 48 49 49 50 50 51 51 52 52 53 53 52 52 52 52 52 52 52 51
37 37 38 39 39 39 40 40 40 41 42 43 43 44 44 44 45 45 46 47 47 48 48 49 49 49 50 50 51 51 52 52 52 52 52 52 51 52 52 52 51 51 49
36 37 37 38 38 39 39 40 40 41 42 43 43 44 45 45 46 46 47 47 47 48 47 48 49 49 50 50 51 51 51 51 51 51 51 50 50 51 51 51 51 50 50
37 37 37 38 39 40 40 41 42 43 43 43 44 44 45 46 46 47 47 48 48 48 48 48 49 49 49 50 51 51 50 50 50 50 50 49 50 50 50 49 49 49 48
37 38 39 39 40 41 42 43 43 44 44 44 45 45 46 47 47 48 48 48 48 48 48 48 48 49 49 50 50 51 51 51 51 50 50 49 49 48 48 47 47 46 45
38 39 39 40 40 41 42 43 44 44 45 45 46 46 47 47 48 49 48 48 48 48 48 49 49 49 49 49 50 50 51 52 52 51 50 49 48 47 46 45 44 44 42
40 40 40 41 42 42 43 43 44 45 45 46 46 47 48 48 49 49 48 48 48 48 48 48 49 49 50 50 51 51 52 52 51 51 50 48 46 45 44 43 43 42 41
41 41 42 42 43 43 43 44 44 45 46 46 47 47 48 48 48 48 48 48 48 48 49 49 49 50 51 51 52 51 51 51 50 49 48 46 44 43 42 42 41 41 40
42 42 43 44 44 44 45 45 46 46 47 47 47 47 47 47 47 47 47 47 48 48 49 49 49 50 50 51 50 50 49 49 48 47 45 44 43 42 41 41 40 39 38
43 43 44 44 45 45 46 47 46 47 47 46 47 47 47 46 46 46 47 47 48 49 49 50 50 50 49 48 48 47 46 46 45 43 42 42 41 41 40 39 38 37 36
43 44 45 45 46 46 46 46 46 45 45 45 45 46 46 46 46 47 48 49 49 49 50 49 49 48 47 46 46 45 44 43 42 41 40 39 38 38 37 36 36 35 35
43 44 44 45 45 45 45 45 45 45 45 44 45 45 46 46 47 48 49 49 49 49 49 48 48 47 46 45 44 43 43 42 41 39 38 37 36 35 35 34 33 33 32
43 43 44 44 44 44 44 45 45 44 44 44 45 46 46 47 48 48 48 48 48 48 47 47 47 47 45 45 44 43 42 40 39 37 36 34 33 33 32 31 31 30 29
43 43 43 44 44 44 45 45 44 44 44 45 46 46 47 47 47 47 46 46 46 46 47 46 46 45 44 44 43 42 40 38 36 34 33 32 31 30 29 28 28 28 27
42 42 43 43 44 44 44 44 44 44 45 46 46 46 46 46 46 46 45 45 45 45 45 44 44 43 43 42 41 39 37 35 34 32 31 30 28 27 27 27 26 26 26
41 42 43 43 44 43 43 44 44 45 46 46 45 45 45 45 45 44 44 44 44 44 43 42 42 42 41 40 38 36 34 32 31 30 29 27 26 26 26 25 25 25 25
42 42 43 43 43 43 43 44 44 45 45 45 45 45 44 43 43 42 42 42 42 42 41 41 40 39 38 36 35 34 32 30 28 27 27 26 26 25 25 24 24 23 23
43 43 43 43 43 43 43 43 44 45 44 44 44 43 42 42 41 41 41 41 41 40 39 39 38 36 35 33 31 30 28 27 26 25 24 24 24 24 23 22 22 22 22
42 43 43 43 43 43 43 43 44 44 43 42 42 42 41 41 40 40 40 40 39 38 38 37 35 33 31 29 28 26 25 24 23 23 22 21 21 21 21 20 20 20 21
Wind_Direction
269 271 272 272 273 274 276 276 276 276 277 277 278 278 279 281 282 283 283 283 283 284 285 286 287 288 288 288 289 289 289 289 289 288 287 287 287 286 285 284 283 283 283
270 272 274 274 275 275 277 276 276 277 278 277 278 278 279 281 283 284 284 284 284 285 286 287 288 288 288 288 289 289 289 288 288 288 288 288 288 287 286 285 284 283 283
272 273 274 275 276 277 278 277 277 278 278 277 278 280 281 282 282 283 285 285 286 287 287 287 288 288 289 289 289 289 289 289 289 289 288 288 288 288 287 286 285 285 284
273 273 274 275 277 278 279 279 279 279 278 279 280 281 283 283 283 284 285 286 287 288 288 288 289 289 289 288 288 288 288 289 289 289 289 289 288 287 287 287 286 285 284
274 274 275 276 277 279 279 280 280 279 279 280 281 282 284 285 286 286 286 286 287 289 289 289 289 289 288 288 288 288 288 289 290 290 290 290 289 288 287 287 286 285 285
275 276 276 277 277 279 279 280 281 281 281 282 283 284 285 286 286 287 287 287 288 289 289 289 289 288 287 287 287 288 289 289 290 291 291 290 289 289 289 287 287 286 285
277 276 277 278 279 279 280 280 281 282 283 284 285 286 286 287 288 288 288 288 288 289 289 289 288 287 287 287 288 288 289 290 291 291 291 291 290 290 289 288 287 286 285
278 278 278 278 279 281 282 283 282 283 284 285 287 287 287 287 288 288 289 289 290 289 290 290 289 288 288 288 288 289 290 291 291 291 291 291 290 290 289 288 287 286 285
280 280 279 279 280 282 283 284 284 285 286 287 287 287 287 288 289 289 290 290 291 291 291 291 290 288 288 288 289 289 290 291 291 291 291 290 290 290 289 288 287 287 286
281 282 282 281 282 284 285 286 286 287 288 288 287 287 287 288 289 290 291 291 291 292 293 292 292 291 290 290 290 290 290 290 290 290 290 290 290 290 289 288 287 287 286
283 283 283 284 284 285 286 287 288 288 288 288 287 288 288 288 289 290 291 291 292 292 293 293 292 291 291 291 291 291 291 291 291 291 291 290 289 289 288 288 287 287 286
285 284 284 285 285 286 287 288 288 288 288 288 288 289 289 289 290 290 291 291 291 292 293 293 293 292 291 291 291 291 292 292 292 291 291 290 289 288 287 287 286 286 285
285 286 286 286 286 287 287 288 289 289 289 289 289 289 289 289 290 291 291 291 291 292 293 293 293 292 292 292 292 292 292 292 291 291 291 290 288 287 286 286 285 285 284
285 287 288 288 288 288 289 289 289 289 289 289 290 290 290 291 291 291 291 291 292 293 293 293 293 293 293 293 293 293 293 293 292 291 290 288 287 286 286 285 285 284 283
285 286 287 288 289 289 289 290 290 290 290 291 291 291 291 292 292 292 291 291 292 292 293 293 294 294 294 294 294 293 293 292 291 291 289 287 286 286 285 285 284 283 283
285 285 286 287 289 289 290 289 290 291 291 291 291 292 292 293 293 293 292 293 293 294 294 295 295 296 296 295 294 294 293 292 291 290 288 286 286 285 285 284 283 283 283
285 285 286 287 288 290 290 290 290 291 291 291 292 293 293 294 294 294 293 294 295 295 296 296 297 297 297 297 296 295 295 294 293 291 289 287 286 285 285 284 283 282 281
285 286 287 288 289 290 290 290 291 291 291 292 292 293 294 295 295 295 295 295 296 296 297 297 297 297 297 297 297 296 296 295 293 291 290 288 286 285 284 284 283 281 280
286 287 288 289 290 290 291 291 292 293 293 293 293 293 294 294 295 295 296 297 297 296 296 297 297 297 297 297 297 297 296 295 293 291 289 287 286 285 283 283 282 281 280
287 288 288 289 290 290 291 291 292 293 294 295 295 295 295 295 296 296 296 297 297 297 296 296 297 297 296 296 296 296 296 295 293 291 289 287 285 284 282 282 281 280 279
288 288 289 290 290 290 291 292 292 294 295 296 297 297 296 297 297 297 297 297 297 297 297 297 297 296 296 296 296 295 294 293 292 289 287 286 285 282 281 282 281 280 279
288 289 289 290 290 291 291 292 293 295 296 298 299 298 297 298 298 298 298 297 298 298 298 298 297 297 296 295 295 294 293 291 290 288 286 285 284 282 281 281 281 280 279
288 288 289 290 291 292 292 292 293 295 296 298 298 298 298 298 298 298 299 298 298 299 299 299 299 298 296 295 293 292 291 290 289 287 285 283 282 280 280 280 280 280 280
287 289 290 291 291 292 293 293 294 295 296 297 297 298 298 298 298 299 299 300 300 300 300 300 300 299 297 295 292 290 289 287 286 285 284 282 281 279 279 280 280 280 280
289 290 292 292 292 292 293 294 294 295 296 296 296 297 297 298 298 299 300 301 301 301 301 300 300 299 298 295 292 290 287 285 285 285 283 282 280 279 277 277 279 279 280
290 291 292 292 292 293 293 294 295 295 296 296 296 297 297 298 298 299 300 301 301 301 301 300 299 298 296 294 292 289 287 285 285 284 284 282 281 278 276 276 277 278 281
Height
5705 5705 5704 5704 5703 5703 5702 5702 5701 5701 5700 5700 5699 5698 5697 5695 5694 5692 5691 5689 5687 5686 5684 5682 5680 5677 5675 5672 5669 5667 5664 5662 5660 5658 5655 5652 5649 5647 5644 5641 5639 5637 5635
5697 5696 5696 5695 5695 5694 5694 5692 5692 5691 5690 5689 5688 5687 5685 5684 5682 5681 5679 5677 5675 5674 5671 5669 5667 5664 5662 5659 5656 5653 5651 5648 5646 5644 5641 5638 5635 5633 5630 5628 5625 5623 5620
5688 5687 5687 5686 5686 5685 5684 5683 5682 5681 5680 5679 5677 5676 5674 5672 5671 5669 5667 5665 5663 5661 5658 5656 5653 5651 5648 5646 5643 5640 5637 5634 5632 5630 5627 5624 5621 5619 5616 5614 5611 5608 5606
5679 5678 5678 5677 5676 5675 5674 5673 5672 5671 5669 5668 5666 5664 5663 5661 5659 5657 5655 5652 5650 5648 5645 5643 5640 5637 5634 5632 5629 5626 5623 5620 5618 5615 5613 5610 5607 5604 5601 5599 5596 5593 5591
5670 5669 5668 5667 5666 5665 5664 5663 5661 5660 5658 5657 5655 5653 5651 5649 5647 5644 5642 5640 5637 5635 5632 5629 5626 5623 5620 5618 5615 5613 5610 5607 5603 5601 5598 5595 5592 5589 5586 5583 5580 5578 5576
5661 5660 5659 5658 5656 5655 5654 5652 5651 5649 5647 5645 5643 5641 5639 5636 5634 5631 5629 5626 5624 5621 5618 5615 5612 5609 5606 5604 5601 5598 5595 5592 5589 5586 5583 5580 5576 5573 5570 5567 5564 5562 5560
5651 5650 5649 5647 5646 5644 5643 5641 5640 5638 5636 5634 5632 5629 5627 5624 5621 5618 5615 5613 5610 5608 5604 5601 5598 5595 5592 5589 5586 5583 5580 5576 5573 5571 5568 5564 5560 5557 5554 5551 5548 5545 5544
5641 5640 5638 5637 5635 5634 5632 5630 5628 5627 5624 5622 5619 5617 5614 5611 5608 5606 5603 5600 5597 5594 5591 5587 5584 5581 5578 5575 5572 5569 5566 5562 5558 5555 5552 5548 5544 5541 5538 5535 5532 5530 5528
5631 5629 5628 5626 5625 5623 5621 5619 5617 5615 5612 5610 5607 5604 5602 5599 5596 5593 5590 5587 5584 5581 5577 5573 5570 5567 5563 5560 5557 5554 5551 5547 5543 5539 5536 5532 5528 5525 5522 5519 5516 5513 5512
5621 5619 5617 5616 5614 5612 5610 5608 5605 5603 5600 5598 5595 5592 5589 5586 5583 5580 5577 5574 5571 5568 5564 5560 5556 5552 5548 5544 5542 5539 5536 5532 5528 5524 5521 5517 5513 5509 5506 5503 5500 5497 5496
5611 5609 5607 5605 5603 5601 5599 5596 5594 5591 5588 5586 5583 5580 5577 5573 5570 5567 5563 5560 5557 5554 5550 5546 5542 5538 5534 5530 5526 5523 5519 5516 5513 5509 5506 5502 5499 5495 5491 5488 5485 5482 5480
5601 5599 5597 5594 5592 5590 5587 5585 5582 5578 5576 5573 5570 5567 5564 5560 5557 5553 5550 5546 5543 5539 5536 5532 5528 5523 5519 5515 5511 5508 5504 5501 5497 5494 5491 5487 5484 5480 5477 5473 5471 5468 5466
5590 5588 5586 5583 5581 5578 5575 5572 5569 5566 5563 5560 5557 5554 5551 5547 5543 5539 5536 5532 5528 5525 5522 5518 5514 5509 5505 5501 5497 5493 5489 5485 5482 5479 5475 5472 5469 5465 5462 5459 5457 5455 5453
5579 5577 5574 5572 5569 5566 5563 5560 5557 5554 5550 5547 5544 5541 5537 5533 5529 5525 5521 5518 5514 5511 5508 5504 5500 5495 5491 5487 5483 5478 5474 5470 5466 5463 5460 5457 5454 5451 5448 5446 5444 5442 5441
5568 5565 5563 5560 5557 5554 5551 5548 5544 5541 5537 5534 5530 5527 5523 5520 5515 5511 5507 5504 5500 5497 5493 5490 5485 5481 5476 5472 5467 5462 5458 5454 5450 5447 5444 5441 5439 5437 5435 5432 5431 5429 5428
5556 5553 5551 5548 5545 5542 5539 5536 5531 5528 5524 5520 5516 5512 5509 5505 5501 5497 5493 5489 5485 5482 5478 5474 5470 5465 5461 5456 5452 5447 5443 5439 5435 5432 5429 5427 5425 5423 5421 5419 5418 5416 5415
5543 5541 5538 5535 5532 5529 5526 5522 5519 5516 5511 5507 5503 5499 5495 5491 5488 5483 5479 5476 5472 5467 5463 5459 5455 5450 5445 5441 5436 5432 5428 5425 5421 5418 5415 5413 5411 5409 5407 5406 5405 5404 5403
5530 5528 5525 5522 5519 5516 5512 5509 5506 5502 5499 5495 5490 5486 5482 5478 5474 5470 5466 5462 5458 5453 5448 5444 5440 5435 5430 5426 5422 5418 5415 5411 5408 5405 5402 5400 5397 5396 5395 5394 5393 5392 5391
5517 5515 5512 5509 5506 5503 5499 5496 5492 5489 5485 5481 5478 5473 5469 5465 5461 5456 5451 5447 5443 5439 5434 5430 5425 5421 5417 5413 5409 5405 5402 5398 5395 5392 5390 5388 5386 5384 5383 5382 5381 5380 5380
5504 5502 5499 5496 5493 5490 5486 5483 5479 5476 5472 5468 5464 5460 5456 5451 5447 5443 5438 5433 5429 5424 5420 5416 5412 5407 5403 5400 5396 5393 5389 5386 5383 5380 5378 5376 5374 5373 5372 5371 5370 5370 5370
5492 5489 5486 5483 5480 5477 5474 5470 5467 5463 5459 5455 5451 5446 5442 5438 5434 5429 5424 5420 5415 5411 5406 5402 5398 5394 5390 5386 5383 5380 5377 5374 5371 5369 5367 5366 5364 5363 5362 5362 5361 5361 5360
5479 5476 5473 5470 5467 5464 5460 5457 5454 5450 5446 5442 5438 5433 5429 5424 5420 5416 5411 5407 5402 5397 5393 5388 5385 5381 5377 5373 5370 5367 5365 5362 5360 5358 5357 5356 5355 5354 5353 5353 5352 5352 5351
5466 5464 5461 5458 5454 5451 5447 5444 5441 5437 5433 5429 5425 5420 5416 5412 5407 5403 5398 5394 5389 5385 5380 5376 5372 5368 5364 5361 5358 5356 5354 5352 5350 5348 5347 5347 5346 5345 5345 5344 5344 5343 5343
5454 5451 5448 5445 5441 5438 5435 5431 5427 5424 5420 5416 5412 5408 5403 5399 5395 5390 5386 5382 5377 5373 5368 5364 5360 5356 5353 5349 5347 5345 5343 5342 5340 5339 5338 5338 5337 5337 5336 5336 5336 5335 5335
5441 5438 5435 5432 5429 5425 5422 5418 5414 5410 5407 5403 5399 5395 5391 5387 5383 5379 5374 5370 5366 5361 5357 5353 5349 5345 5342 5339 5337 5335 5334 5332 5331 5330 5330 5329 5329 5329 5328 5328 5328 5328 5328
5428 5425 5422 5419 5415 5412 5408 5405 5401 5397 5394 5390 5386 5382 5379 5375 5371 5367 5363 5358 5354 5350 5346 5342 5338 5335 5332 5330 5328 5326 5325 5324 5323 5323 5322 5322 5321 5321 5321 5321 5321 5321 5321